COSMOS 2251 DEB, 34671

Orbit data source: Space-Track

COSMOS 2251 DEB, 34671 is space debris in LEO originally from a launch on Wed, 16 Jun 1993 UTC launched from the Plesetsk Missile And Space Complex (PKMTR). The debris from Iridium 33, an American commercial communications satellite, has been tracked extensively since its accidental collision with the defunct Russian satellite Cosmos 2251 in 2009. This event, occurring at high speed in low Earth orbit (LEO), generated thousands of pieces of space debris, significantly increasing the risk of further collisions. The Iridium 33 debris cloud has impacted space traffic management and orbital debris mitigation strategies, making it a subject of ongoing study in space situational awareness.

Loading next visibility...
Identifier
34671, 1993-036XR
Orbit
LEO
Country
Flag of CISCIS
Related business
Manufacturer
Unknown
Mission
Spacecraft
Bus & Motor
Unknown
Mass
Unknown
Launch date (UTC)
1993-06-16 (33 years ago)
Launch vehicle
Unknown
Launch site
Plesetsk Missile And Space Complex (PKMTR)
Object type
Payload
Rocket body
Debris
Shape & HBR
Unknown shape, 0.1 m
Radar Cross Section
Small (<0.1 m²)

Expand to show TLE details & history
Last TLE update: 1 day ago

TLE from 1 day ago
0 COSMOS 2251 DEB
1 34671U 93036XR  26036.42696438  .00013171  00000-0  22942-2 0  9995
2 34671  74.0274  28.6273 0007725  92.6919  59.5383 14.68068175890996
Epoch: 2026-02-05T10:14Z
TLE epoch observation values (Epoch: 2026-02-05T10:14:49.722Z)
Latitude
26.58216°
Longitude
-88.84873°
Altitude
667.44 km
Speed
7.527 km/s
True Right ascension
13h 21m 45s
True Declination
26° 26' 35"
Sunlit
Object was in full shadow at epoch
Visualization orbit readout
Latitude
Unknown
Longitude
Unknown
Altitude
Unknown
Speed
Unknown
Apparent Right ascension
Unknown
Apparent Declination
Unknown
Sunlit
N/A
Visualization observer readout
Local Sidereal Time
21:14:45
Azimuth
Unknown
Elevation
Unknown
Doppler factor
Unknown
Orbital elements
Apogee altitude
670.272 km
Perigee altitude
659.391 km
Semi-major axis
7,042.968 km
Eccentricity
0.00077
Inclination
74.0274°
RAAN
28.6273°
Arg. of periapsis
92.6919°
True anomaly
59.61464°
Mean anomaly
59.5383°
Eccentric anomaly
59.57647°
Mean motion
3.67206 °/min
Orbital period
98.04 mins
BSTAR
0.0022942
Loading maneuver chart data...
Computing Atmospheric mass density...

Documentation

Showing up to 5 results
|